Location: Chippewa Lake
(41.0698°N, 81.9010°W)
Time: 20:51:32
(UTC+00:00)

NOSS 3-3 (A) - Pass Details

Date: 09 May 2021
Orbit: 810 x 1402 km, 63.4° (Epoch: 06 June)

Event Time Altitude Azimuth Distance (km) Brightness Sun altitude
Rises 03:04:18 0° 226° (SW) 3,364 6.8 -23.2°
Reaches altitude 10° 03:06:41 10° 230° (SW) 2,472 6.1 -23.4°
Maximum altitude 03:12:17 59° 310° (NW) 1,053 4.4 -24.0°
Drops below altitude 10° 03:18:40 10° 29° (NNE) 2,800 6.7 -24.7°
Sets 03:21:31 0° 34° (NNE) 3,849 7.4 -25.0°
